FLOCK 4V-21

Last updated on Fri Nov 06 2020 00:02:03 GMT+0000 (Coordinated Universal Time)

1 46596U 20061BK 20310.79870378 .00000769 00000-0 43816-4 0 9992 2 46596 97.4559 22.7612 0004572 21.1109 339.0311 15.15698946 3370

Satellite not in orbit

FLOCK 4V-21